Location: W?d? Ab? ?ad?d
(23.7000°N, 32.8667°E)
Time: 09:03:03
(UTC+00:00)

Daily predictions for brighter satellites

Satellite Brightness Start Highest point End
(mag) Time Altitude Azimuth Time Altitude Azimuth Time Altitude Azimuth
Cosmos 1777 Rocket 4.0 15:20:15 10° S 15:25:29 76° ESE 15:30:43 10° NNE
Cosmos 44 3.7 15:21:32 10° NNW 15:26:43 48° ENE 15:31:51 10° SE
Cosmos 1733 3.0 15:27:17 10° NNE 15:28:51 19° E 15:30:26 10° SE
Cosmos 2151 4.1 15:26:55 10° NNE 15:30:09 22° E 15:33:22 10° SE
SMAP 3.1 15:29:05 10° SSE 15:33:43 89° WSW 15:38:23 10° NNW
YAOGAN 1 4.2 15:32:35 10° ESE 15:34:45 14° ENE 15:36:54 10° NE
Milstar 3 Cent rocket 4.4 15:25:25 10° W 15:34:58 74° N 15:55:51 12° E
Ariane H10+ 4.4 15:31:32 10° SW 15:36:43 17° SSW 15:40:21 10° SSE
ATLAS 2A CENTAUR R/B 4.1 15:12:35 10° W 15:39:07 75° N 15:44:23 11° E
Landsat 7 3.7 15:35:56 10° SSE 15:40:34 80° ENE 15:45:14 10° N
Cosmos 1743 2.9 15:38:38 10° NNE 15:41:36 32° E 15:44:32 10° SSE
USA 238 DEB 4.1 15:38:47 10° S 15:43:59 34° ESE 15:49:02 12° NE
USA 238 4.1 15:38:55 10° S 15:44:06 33° ESE 15:49:05 12° NE
IRIDIUM 106 4.3 15:41:49 10° N 15:46:59 62° E 15:52:07 10° S
IRS-1C 4.1 15:42:14 10° SSE 15:47:33 88° ENE 15:52:53 10° NNW
SPOT 1/Viking Rocket 4.0 15:43:47 10° SE 15:48:29 37° ENE 15:53:13 10° N
COSMO-SKYMED 1 2.5 15:45:07 10° NNE 15:49:09 55° E 15:53:09 10° S
MOS 1 Rocket 3.2 15:46:54 10° SSE 15:51:23 69° ENE 15:56:09 10° N
AQUARIUS 4.0 15:47:05 10° SSE 15:51:27 77° ENE 15:55:51 10° N
ARIANE 5 R/B 2.6 15:47:41 10° S 15:52:40 78° WSW 15:57:42 10° NNW
CZ-2D R/B 4.1 15:53:49 10° SE 15:57:36 34° ENE 16:01:24 10° N
NOSS 2-3 (C) 3.1 15:56:38 10° SSW 16:00:35 63° ESE 16:02:49 20° NE
Cosmos 2058 Rocket 4.2 15:57:38 10° SE 16:01:06 23° E 16:02:02 21° ENE
ISS -1.0 15:58:51 10° WNW 16:01:32 22° SW 16:04:12 10° S
Cosmos 1825 Rocket 4.3 16:02:22 10° NNE 16:06:09 30° E 16:09:55 10° SE
Cosmos 1758 Rocket 4.2 16:01:59 10° NNW 16:06:11 57° W 16:10:21 10° S
Cosmos 2208 Rocket 4.1 16:01:17 10° N 16:06:16 50° ENE 16:11:18 10° SSE
Cosmos 2297 Rocket 2.9 16:02:02 10° N 16:06:55 29° ENE 16:11:46 10° SE
Cosmos 773 Rocket 4.0 16:05:14 10° N 16:10:21 55° ENE 16:15:28 10° SSE
Cosmos 1655 Rocket 4.5 16:07:02 10° NNE 16:12:40 35° E 16:18:15 10° SSE
Cosmos 990 Rocket 4.1 16:09:10 10° SSW 16:14:15 75° WNW 16:19:22 10° N
Hubble Space Telescope 1.8 16:15:39 10° SW 16:18:55 27° SSE 16:19:47 25° SE
Cosmos 1980 Rocket 2.2 16:16:39 10° S 16:22:11 58° ESE 16:25:21 26° NE
SWIFT 4.2 16:22:29 10° WSW 16:24:52 18° SSW 16:26:50 12° SSE
Cosmos-2242 3.3 16:21:26 10° SSE 16:25:12 40° E 16:25:12 40° E
Resurs 1-3 3.4 16:27:07 10° SSE 16:31:23 74° ENE 16:35:40 10° N
Meteor 2-20 4.4 16:25:47 10° S 16:31:56 87° W 16:38:07 10° N
Helios 1A Rocket 4.2 16:31:04 10° NNW 16:34:06 31° WNW 16:37:08 10° SW
BREEZE-M DEB (TANK) 3.1 16:28:33 10° NW 16:35:50 61° NE 16:36:21 55° ENE
H-2A R/B 2.0 16:34:47 10° WNW 16:37:21 47° N 16:37:53 44° NNE
Okean 1-7 Rocket 3.9 16:33:46 10° NNW 16:38:05 64° W 16:42:23 10° S
ARIANE 6 FM1 Upper Stage 4.2 16:37:22 10° NW 16:41:04 35° WSW 16:44:50 10° S
Intelsat 5-1 Rocket 1.9 16:39:54 10° W 16:42:41 64° S 16:42:57 61° SSE
IRAS Rocket 4.1 16:37:32 10° SSE 16:43:02 78° ENE 16:48:31 10° N
CZ-4C R/B 3.9 16:39:32 10° N 16:44:46 30° NE 16:44:46 30° NE
Spot 4 Rocket 4.3 16:43:46 10° S 16:48:49 68° WSW 16:53:53 10° NNW
Sakura Rocket 3.2 16:48:05 10° WSW 16:51:01 52° WSW 16:51:01 52° WSW
Meteor 1-26 Rocket 4.1 16:52:49 10° S 16:58:23 82° W 17:00:08 45° N
COSMOS 2455 4.1 16:58:46 10° S 17:01:37 25° SSE 17:01:37 25° SSE
Cosmos 1898 Rocket 3.6 17:03:35 10° SSW 17:08:42 70° WNW 17:08:43 70° WNW
YAOGAN 1 4.4 17:06:32 10° SSW 17:10:15 30° W 17:14:00 10° NW
Yuri Rocket 3.8 17:05:08 10° WNW 17:12:34 82° NNW 17:12:34 82° NNW
Cosmos 1553 Rocket 4.2 17:14:10 10° SSW 17:20:10 64° W 17:21:47 47° NNW
Cosmos 2297 Rocket 4.2 17:46:13 10° NW 17:50:41 24° WSW 17:55:09 10° SSW
